Weather observations for the past three days for
Mountain View, Moffett Field
Metric (Imperial)
Date Time (pdt) Wind (kph) Vis. (km) Weather Sky Cond. Temperature (ºC) Relative Humidity Wind Chill (°C) Heat Index (°C) Pressure Precipitation (cm)
Air Dwpt 6 hour altimeter (cm) sea level (mb) 1 hr 3 hr 6 hr
Max. Min.
03 16:35 S 6 G 19 14.48 Overcast BKN044 OVC050 18 7 49% 75.92 0.0
03 16:15 SW 13 G 24 14.48 Overcast OVC045 18 8 52% 75.95 0.0
03 15:55 W 19 14.48 Overcast OVC046 18 8 52% 75.95 0.0
03 15:35 Calm 14.48 Overcast BKN044 OVC050 18 7 49% 75.95 0.0
03 15:15 Vrbl 11 16.09 Overcast OVC043 18 7 49% 75.97 0.0
03 14:55 S 17 14.48 Overcast OVC042 18 7 49% 75.95 0.0
03 14:35 Vrbl 7 14.48 Overcast OVC042 18 9 56% 75.95 0.0
03 14:15 N 15 14.48 Overcast OVC043 18 9 56% 75.97 0.0
03 13:55 Vrbl 7 14.48 Overcast OVC041 17 9 60% 75.97 0.0
03 13:35 NE 9 14.48 Overcast OVC040 17 8 56% 75.97 0.0
03 13:15 Vrbl 9 14.48 Mostly Cloudy BKN038 17 8 56% 76 0.0
03 12:55 Calm 14.48 Overcast OVC041 18 8 52% 76 0.0
03 12:35 Calm 14.48 Overcast BKN041 OVC049 18 8 52% 76 0.0
03 12:15 NW 11 14.48 Overcast BKN040 OVC048 17 8 56% 76 0.0
03 11:55 Calm 14.48 Overcast OVC038 17 8 56% 76.02 0.0
03 11:35 Vrbl 6 14.48 Overcast OVC037 17 9 60% 76.02 0.0
03 11:15 S 7 14.48 Overcast OVC036 16 8 59% 76.02 0.0
03 10:55 W 7 14.48 Overcast OVC035 16 8 59% 76.02 0.0
03 10:35 SW 9 14.48 Overcast BKN029 OVC034 15 8 63% 76.02 0.0
03 10:15 SW 15 14.48 Overcast SCT024 BKN030 OVC037 15 9 68% 76.02 0.0
03 09:55 S 7 14.48 Overcast OVC039 15 10 72% 76.02 0.0
03 09:35 Calm 12.87 Overcast FEW020 FEW027 OVC040 14 10 77% 76.02 0.0
03 09:15 SW 7 G 19 4.02 Mostly Cloudy with Haze FEW016 SCT021 BKN028 14 10 77% 76.02 0.0
03 08:55 Calm 11.27 Mostly Cloudy FEW017 SCT024 BKN028 14 9 72% 76 0.0
03 08:35 NW 7 14.48 Overcast BKN027 OVC032 14 9 72% 76 0.0
03 08:15 W 9 12.87 Overcast BKN027 OVC034 14 9 72% 76 0.0
03 07:55 SW 6 14.48 Overcast SCT028 OVC034 14 8 67% 75.97 0.0
03 07:35 Calm 14.48 Overcast OVC033 14 9 72% 75.95 0.0
03 07:15 Calm 14.48 Overcast OVC032 14 9 72% 75.92 0.0
03 06:55 Calm 14.48 Overcast OVC030 13 9 77% 75.92 0.0
03 06:35 Calm 14.48 Overcast OVC028 13 9 77% 75.92 0.0
03 06:15 SW 7 14.48 Overcast OVC028 13 9 77% 75.9 0.0
03 05:55 Vrbl 7 14.48 Overcast OVC028 13 9 77% 75.87 0.0
03 05:35 Calm 14.48 Overcast OVC026 13 9 77% 75.87 0.0
03 05:15 W 7 14.48 Overcast OVC025 13 9 77% 75.87 0.0
03 04:55 W 9 14.48 Overcast OVC024 13 9 77% 75.87 0.0
03 04:35 W 7 14.48 Overcast OVC024 13 9 77% 75.9 0.0
03 04:15 W 6 14.48 Overcast OVC024 13 9 77% 75.9 0.0
03 03:55 W 9 14.48 Overcast OVC023 13 9 77% 75.9 0.0
03 03:15 W 11 12.87 Overcast OVC021 13 9 77% 75.87 0.0
03 02:55 W 9 14.48 Overcast OVC021 13 9 77% 75.87 0.0
03 02:35 W 11 14.48 Overcast OVC021 13 9 77% 75.9 0.0
03 02:15 W 11 12.87 Overcast OVC021 13 9 77% 75.9 0.0
03 01:55 W 13 14.48 Overcast OVC022 13 9 77% 75.9 0.0
03 01:35 W 9 14.48 Overcast OVC022 13 9 77% 75.92 0.0
03 01:15 W 11 14.48 Overcast OVC022 13 9 77% 75.92 0.0
03 00:55 Vrbl 7 14.48 Overcast OVC022 13 9 77% 75.92 0.0
03 00:35 N 9 14.48 Overcast OVC021 13 9 77% 75.95 0.0
03 00:15 NW 11 14.48 Overcast OVC022 13 9 77% 75.95 0.0
02 23:55 NW 11 14.48 Overcast OVC023 13 9 77% 75.95 0.0
02 23:35 NW 9 14.48 Overcast OVC024 13 9 77% 75.95 0.0
02 23:15 NW 11 14.48 Overcast OVC024 13 9 77% 75.95 0.0
02 22:55 N 13 14.48 Overcast OVC024 13 9 77% 75.95 0.0
02 22:35 NW 11 14.48 Overcast OVC024 13 9 77% 75.97 0.0
02 22:15 NW 11 14.48 Overcast OVC024 13 9 77% 75.97 0.0
02 21:55 NW 13 14.48 Overcast OVC026 13 9 77% 75.97 0.0
02 21:35 NW 15 14.48 Overcast OVC027 13 9 77% 75.95 0.0
02 20:55 NW 13 G 24 12.87 Overcast OVC028 14 9 72% 75.92 0.0
02 20:35 NW 17 G 26 12.87 Overcast OVC029 14 9 72% 75.92 0.0
02 20:15 N 22 14.48 Overcast OVC029 14 9 72% 75.9 0.0
02 19:55 N 20 11.27 Overcast OVC030 14 9 72% 75.87 0.0
02 19:35 NW 24 12.87 Mostly Cloudy BKN031 14 9 72% 75.87 0.0
02 19:15 N 20 11.27 Fair CLR 15 9 68% 75.84 0.0
02 18:55 N 26 12.87 Fair CLR 15 9 68% 75.84 0.0
02 18:35 N 26 11.27 Fair CLR 16 10 68% 75.84 0.0
02 18:15 N 26 11.27 Fair CLR 16 10 68% 75.84 0.0
02 17:55 N 28 11.27 Fair CLR 17 10 64% 75.84 0.0
02 17:35 N 28 11.27 Fair CLR 17 10 64% 75.84 0.0
02 17:15 N 24 G 37 11.27 Fair CLR 17 10 64% 75.87 0.0
02 16:55 N 33 G 43 11.27 Fair and Breezy CLR 17 11 68% 75.87 0.0
02 16:35 N 30 12.87 Fair CLR 18 10 60% 75.87 0.0
02 16:15 N 24 G 35 11.27 Fair CLR 18 11 64% 75.9 0.0
02 15:55 N 31 11.27 Fair CLR 17 11 68% 75.92 0.0
02 15:35 N 26 11.27 Fair CLR 18 11 64% 75.92 0.0
02 15:15 N 24 G 37 11.27 Fair CLR 18 11 64% 75.95 0.0
02 14:55 N 28 11.27 Fair CLR 18 11 64% 75.97 0.0
02 14:35 N 24 12.87 Mostly Cloudy BKN031 18 11 64% 75.97 0.0
02 14:15 N 24 11.27 Overcast BKN028 OVC032 17 11 68% 76 0.0
02 13:55 N 20 14.48 Overcast OVC028 18 11 64% 76.02 0.0
02 13:35 N 19 12.87 Overcast BKN027 OVC032 18 11 64% 76.02 0.0
02 13:15 N 13 14.48 Overcast OVC026 18 11 64% 76.05 0.0
02 12:55 NW 9 G 19 14.48 Overcast OVC024 17 11 68% 76.07 0.0
02 12:35 Vrbl 11 12.87 Overcast OVC024 17 11 68% 76.07 0.0
02 12:15 Vrbl 9 14.48 Overcast OVC024 18 11 64% 76.07 0.0
02 11:55 NW 11 14.48 Overcast BKN024 OVC028 17 10 64% 76.1 0.0
02 11:35 Vrbl 6 12.87 Overcast OVC023 17 11 68% 76.1 0.0
02 11:15 Calm 14.48 Overcast OVC021 16 10 68% 76.1 0.0
02 10:55 Calm 12.87 Overcast OVC020 15 10 72% 76.1 0.0
02 10:35 Vrbl 7 12.87 Overcast OVC020 15 10 72% 76.1 0.0
02 10:15 Vrbl 7 12.87 Overcast OVC020 15 10 72% 76.07 0.0
02 09:55 NW 9 12.87 Overcast OVC018 15 10 72% 76.1 0.0
02 09:35 Calm 11.27 Overcast OVC016 15 10 72% 76.07 0.0
02 09:15 W 9 11.27 Overcast OVC015 14 10 77% 76.07 0.0
02 08:55 W 9 11.27 Overcast OVC015 14 10 77% 76.07 0.0
02 08:35 Vrbl 6 9.66 Overcast with Haze OVC015 14 10 77% 76.05 0.0
02 08:15 Calm 8.05 Overcast with Haze OVC015 14 11 82% 76.05 0.0
02 07:55 Calm 8.05 Overcast with Haze OVC014 14 11 82% 76.02 0.0
02 07:35 Calm 8.05 Overcast with Haze OVC013 14 11 82% 76.02 0.0
02 07:15 Calm 8.05 Overcast with Haze OVC013 14 11 82% 76.02 0.0
02 06:55 E 6 8.05 Overcast with Haze OVC013 14 11 82% 76 0.0
02 06:35 Calm 11.27 Overcast OVC012 14 11 82% 76 0.0
02 06:15 Calm 11.27 Overcast OVC012 14 11 82% 76 0.0
02 05:55 E 6 11.27 Overcast OVC013 14 11 82% 75.97 0.0
02 05:35 Calm 12.87 Overcast OVC013 13 11 88% 75.97 0.0
02 05:15 Calm 11.27 Overcast OVC013 14 11 82% 75.97 0.0
02 04:55 N 7 12.87 NULL NULL 14 11 82% 75.97 0.0
02 04:35 N 17 12.87 Overcast OVC013 14 11 82% 75.97 0.0
02 04:15 E 9 11.27 Overcast OVC013 14 11 82% 75.97 0.0
02 03:55 SE 7 11.27 Overcast OVC012 14 11 82% 75.97 0.0
02 03:35 SE 11 11.27 Overcast OVC012 14 11 82% 75.97 0.0
02 03:15 S 7 11.27 Overcast OVC012 14 11 82% 76 0.0
02 02:55 SE 9 11.27 Overcast OVC012 14 11 82% 76 0.0
02 02:35 E 7 11.27 Overcast OVC012 14 11 82% 76.02 0.0
02 02:15 E 9 11.27 Overcast OVC012 14 11 82% 76.02 0.0
02 01:55 E 9 11.27 Overcast OVC013 14 11 82% 76.05 0.0
02 01:35 Calm 11.27 Overcast OVC013 14 11 82% 76.05 0.0
02 01:15 E 6 11.27 Overcast OVC013 14 11 82% 76.07 0.0
02 00:55 NE 9 11.27 Overcast OVC013 14 11 82% 76.07 0.0
02 00:35 NE 6 11.27 Overcast OVC013 14 11 82% 76.05 0.0
02 00:15 E 11 11.27 Overcast OVC013 14 12 88% 76.05 0.0
01 23:55 NE 9 11.27 Overcast OVC013 14 11 82% 76.07 0.0
01 23:35 NE 11 11.27 Overcast OVC013 14 11 82% 76.07 0.0
01 23:15 NE 11 11.27 Overcast OVC013 14 11 82% 76.07 0.0
01 22:55 N 13 11.27 Overcast OVC015 13 11 88% 76.07 0.0
01 22:35 N 17 11.27 Overcast OVC014 13 11 88% 76.07 0.0
01 22:15 N 15 G 26 11.27 Overcast OVC014 14 11 82% 76.07 0.0
01 21:55 N 17 11.27 Overcast OVC013 14 11 82% 76.07 0.0
01 21:35 N 17 11.27 Mostly Cloudy BKN013 BKN020 BKN027 14 11 82% 76.07 0.0
01 21:15 N 17 11.27 A Few Clouds FEW021 FEW033 14 11 82% 76.05 0.0
01 20:55 N 17 11.27 A Few Clouds FEW013 FEW033 14 11 82% 76.02 0.0
01 20:35 N 19 11.27 A Few Clouds FEW013 14 12 88% 76 0.0
01 20:15 N 20 11.27 A Few Clouds FEW013 15 12 82% 76 0.0
01 19:55 N 24 9.66 Fair with Haze CLR 15 12 82% 75.97 0.0
01 19:35 N 22 G 33 9.66 Fair with Haze CLR 16 12 77% 75.97 0.0
01 19:15 N 24 G 33 9.66 Fair with Haze CLR 16 12 77% 75.95 0.0
01 18:55 N 22 G 31 9.66 Fair with Haze CLR 16 12 77% 75.95 0.0
01 18:35 N 30 9.66 Fair with Haze CLR 17 12 73% 75.95 0.0
01 18:15 N 30 9.66 Fair with Haze CLR 17 12 73% 75.95 0.0
01 17:55 N 28 9.66 Fair with Haze CLR 17 12 73% 75.95 0.0
01 17:35 N 26 9.66 Fair with Haze CLR 17 12 73% 75.95 0.0
01 17:15 NW 24 11.27 Fair CLR 17 12 73% 75.97 0.0
01 16:55 NW 19 9.66 Fair with Haze CLR 18 12 68% 75.97 0.0
01 16:35 N 24 9.66 Fair with Haze CLR 18 12 68% 75.97 0.0
01 16:15 N 22 9.66 Fair with Haze CLR 18 12 68% 76 0.0
01 15:55 N 20 9.66 Fair with Haze CLR 18 12 68% 76.02 0.0
01 15:35 N 19 9.66 Fair with Haze CLR 18 12 68% 76.05 0.0
01 14:55 N 20 9.66 Fair with Haze CLR 18 12 68% 76.07 0.0
01 14:35 N 20 9.66 Fair with Haze CLR 18 12 68% 76.1 0.0
01 14:15 N 20 9.66 Fair with Haze CLR 17 12 73% 76.12 0.0
01 13:55 N 19 9.66 Fair with Haze CLR 17 12 73% 76.12 0.0
01 13:35 N 17 9.66 Fair with Haze CLR 18 12 68% 76.12 0.0
01 13:15 NW 17 9.66 Fair with Haze CLR 17 12 73% 76.15 0.0
01 12:55 N 19 9.66 Fair with Haze CLR 17 12 73% 76.15 0.0
01 12:35 N 15 9.66 Fair with Haze CLR 17 12 73% 76.17 0.0
01 12:15 N 13 9.66 Fair with Haze CLR 17 12 73% 76.17 0.0
01 11:55 N 17 9.66 Fair with Haze CLR 17 12 73% 76.17 0.0
01 11:35 N 13 9.66 Fair with Haze CLR 16 11 72% 76.2 0.0
01 11:15 NW 9 9.66 Fair with Haze CLR 16 11 72% 76.2 0.0
01 10:55 Vrbl 11 9.66 A Few Clouds with Haze FEW016 16 11 72% 76.23 0.0
01 10:35 N 13 9.66 A Few Clouds with Haze FEW017 16 11 72% 76.23 0.0
01 10:15 N 9 9.66 A Few Clouds with Haze FEW016 16 11 72% 76.2 0.0
01 09:55 N 11 8.05 Partly Cloudy with Haze SCT016 16 11 72% 76.2 0.0
01 09:35 Vrbl 6 9.66 A Few Clouds with Haze FEW017 15 11 77% 76.2 0.0
01 09:15 NE 7 9.66 A Few Clouds with Haze FEW017 15 11 77% 76.2 0.0
01 08:55 N 9 9.66 Mostly Cloudy with Haze BKN017 15 10 72% 76.17 0.0
01 08:35 Calm 9.66 Mostly Cloudy with Haze BKN016 14 10 77% 76.17 0.0
01 08:15 SE 6 9.66 Mostly Cloudy with Haze BKN015 14 10 77% 76.17 0.0
01 07:55 E 9 8.05 Overcast with Haze OVC014 13 10 82% 76.15 0.0
01 07:35 E 7 8.05 Overcast with Haze OVC014 13 10 82% 76.15 0.0
01 07:15 SE 9 8.05 Overcast with Haze OVC014 13 10 82% 76.15 0.0
01 06:55 SE 13 6.44 Overcast with Haze OVC014 13 11 88% 76.15 0.0
01 06:35 Calm 8.05 Overcast with Haze OVC014 13 10 82% 76.12 0.0
01 06:15 NE 6 9.66 Overcast with Haze OVC014 13 10 82% 76.12 0.0
01 05:55 Calm 9.66 Overcast with Haze OVC013 13 10 82% 76.1 0.0
01 05:35 Calm 9.66 Overcast with Haze OVC013 13 10 82% 76.1 0.0
01 05:15 Calm 9.66 Overcast with Haze OVC013 13 10 82% 76.1 0.0
01 04:55 Calm 9.66 Overcast with Haze OVC013 13 10 82% 76.1 0.0
01 04:35 Calm 9.66 Overcast with Haze OVC012 13 10 82% 76.1 0.0
01 04:15 Calm 11.27 Overcast OVC012 13 10 82% 76.1 0.0
01 03:55 Calm 11.27 Overcast OVC012 13 10 82% 76.1 0.0
01 03:35 Calm 11.27 Overcast OVC012 13 10 82% 76.1 0.0
01 03:15 Calm 11.27 Overcast OVC012 13 10 82% 76.1 0.0
01 02:55 Calm 11.27 Overcast OVC012 13 10 82% 76.1 0.0
01 02:35 Calm 9.66 Overcast with Haze OVC013 13 10 82% 76.1 0.0
01 02:15 N 7 11.27 Overcast OVC013 13 10 82% 76.1 0.0
01 01:55 Calm 9.66 Overcast with Haze OVC014 13 11 88% 76.12 0.0
01 01:35 NE 7 9.66 Fog/Mist OVC014 13 11 88% 76.12 0.0
01 00:55 NE 11 9.66 Fog/Mist BKN013 BKN026 13 11 88% 76.15 0.0
01 00:35 NE 11 9.66 Fog/Mist FEW013 SCT021 SCT026 13 11 88% 76.15 0.0
01 00:15 NE 9 9.66 Fog/Mist CLR 13 11 88% 76.15 0.0
30 23:55 E 6 11.27 Fair CLR 13 10 82% 76.15 0.0
30 23:35 NE 6 9.66 Fair with Haze CLR 13 11 88% 76.15 0.0
30 23:15 NE 15 9.66 Fair with Haze CLR 13 11 88% 76.15 0.0
30 22:55 N 17 11.27 Fair CLR 13 10 82% 76.15 0.0
30 22:35 N 15 11.27 Fair CLR 13 10 82% 76.15 0.0
30 22:15 N 15 11.27 Fair CLR 13 10 82% 76.12 0.0
30 21:35 N 15 11.27 Fair CLR 14 11 82% 76.12 0.0
30 21:15 N 17 9.66 Fair with Haze CLR 14 11 82% 76.1 0.0
30 20:55 N 19 9.66 Haze NULL 14 11 82% 76.1 0.0
30 20:35 N 20 9.66 Fair with Haze CLR 14 11 82% 76.07 0.0
30 20:15 N 19 9.66 Fair with Haze CLR 15 11 77% 76.07 0.0
30 19:55 N 20 8.05 Fair with Haze CLR 15 11 77% 76.05 0.0
30 19:35 N 20 8.05 Fair with Haze CLR 15 12 82% 76.02 0.0
30 19:15 N 24 9.66 Fair with Haze CLR 16 12 77% 76.02 0.0
30 18:55 N 26 8.05 Fair with Haze CLR 16 12 77% 76.02 0.0
30 18:35 N 26 8.05 Fair with Haze CLR 17 12 73% 76.02 0.0
30 18:15 N 28 9.66 Fair with Haze CLR 17 12 73% 76.02 0.0
30 17:55 N 28 8.05 Fair with Haze CLR 18 12 68% 76 0.0
30 17:35 N 30 9.66 Fair with Haze CLR 18 12 68% 76 0.0
30 17:15 N 30 9.66 Fair with Haze CLR 18 12 68% 75.97 0.0
Date Time (pdt) Wind (kph) Vis. (km) Weather Sky Cond. Air Dwpt Max. Min. Relative Humidity Wind Chill (°C) Heat Index (°C) altimeter (cm) sea level (mb) 1 hr 3 hr 6 hr
6 hour
Temperature (ºC) Pressure Precipitation (cm)